This demonstration page uses our WeatherBlox Daily Observations layout. Learn more.

Left ArrowRight Arrow

Hourly Observations for December 24, 2019

Temp ( °F °C ) Dew Point ( °F °C ) Humidity (%) Winds ( mph kmh ) Pressure ( in mb ) Visibility ( mi km ) Precip ( " mm )
12:53 am 00:53 Clear 33 0.6 31 -0.6 92 92 Calm 29.83 1010 10 16 0.00 0.00
1:53 am 01:53 Clear 32 0 30 -1.1 92 92 Calm 29.84 1011 10 16 0.00 0.00
2:53 am 02:53 Clear 32 0 30 -1.1 92 92 NE 5 7 29.85 1011 10 16 0.00 0.00
3:53 am 03:53 Clear 31 -0.6 29 -1.7 92 92 Calm 29.85 1011 10 16 0.00 0.00
4:53 am 04:53 Clear 31 -0.6 29 -1.7 92 92 ESE 3 6 29.88 1012 10 16 0.00 0.00
5:53 am 05:53 Partly Cloudy with Mist and Fog 30 -1.1 28 -2.2 92 92 Calm 29.89 1012 5 8 0.00 0.00
6:02 am 06:02 Mostly Clear with Mist and Fog 30 -1.1 28 -2.2 92 92 Calm 29.92 1013 3 4 0.00 0.00
6:10 am 06:10 Mostly Clear 31 -0.6 28 -2.2 89 89 Calm 29.93 1014 10 16 0.00 0.00
6:53 am 06:53 Clear 30 -1.1 28 -2.2 92 92 Calm 29.90 1013 10 16 0.00 0.00
7:37 am 07:37 Mostly Cloudy 32 0 30 -1.1 92 92 VRB 6 9 29.93 1013 9 14 0.00 0.00
7:53 am 07:53 Cloudy 32 0 31 -0.6 96 96 SE 5 7 29.91 1013 9 14 0.00 0.00
8:53 am 08:53 Cloudy 34 1.1 32 0 92 92 Calm 29.94 1014 10 16 0.00 0.00
9:53 am 09:53 Cloudy 38 3.3 34 1.1 86 86 WNW 3 6 29.95 1014 10 16 0.00 0.00
10:53 am 10:53 Cloudy 41 5 36 2.2 82 82 Calm 29.94 1014 10 16 0.00 0.00
11:53 am 11:53 Cloudy 46 7.8 37 2.8 71 71 Calm 29.92 1013 10 16 0.00 0.00
12:53 pm 12:53 Cloudy 47 8.3 37 2.8 69 69 Calm 29.90 1012 10 16 0.00 0.00
1:21 pm 13:21 Cloudy 47 8.3 38 3.3 71 71 Calm 29.89 1012 10 16 0.00 0.00
1:53 pm 13:53 Mostly Cloudy 47 8.3 38 3.3 71 71 Calm 29.87 1012 10 16 0.00 0.00
2:53 pm 14:53 Sunny 47 8.3 39 3.9 74 74 S 3 6 29.87 1012 10 16 0.00 0.00
3:53 pm 15:53 Sunny 47 8.3 39 3.9 74 74 Calm 29.87 1011 10 16 0.00 0.00
4:53 pm 16:53 Mostly Cloudy 46 7.8 40 4.4 79 79 Calm 29.87 1012 10 16 0.00 0.00
5:53 pm 17:53 Cloudy 45 7.2 40 4.4 83 83 Calm 29.88 1012 10 16 0.00 0.00
6:53 pm 18:53 Cloudy 45 7.2 40 4.4 83 83 Calm 29.88 1012 10 16 0.00 0.00
7:37 pm 19:37 Cloudy 44 6.7 40 4.4 85 85 Calm 29.88 1012 10 16 0.00 0.00
7:53 pm 19:53 Cloudy 44 6.7 41 5 89 89 Calm 29.87 1012 8 13 0.00 0.00
8:19 pm 20:19 Cloudy with Mist and Fog 44 6.7 41 5 89 89 Calm 29.88 1012 6 10 0.00 0.00
8:53 pm 20:53 Cloudy with Mist and Fog 44 6.7 41 5 89 89 NNE 3 6 29.87 1011 6 10 0.01 0.25
9:53 pm 21:53 Cloudy with Mist and Fog 44 6.7 41 5 89 89 Calm 29.87 1012 6 10 0.00 0.00
10:53 pm 22:53 Cloudy with Mist and Fog 43 6.1 41 5 93 93 Calm 29.87 1011 5 8 0.02 0.51
11:03 pm 23:03 Cloudy with Mist and Fog 43 6.1 41 5 93 93 Calm 29.89 1012 6 10 0.00 0.00
11:27 pm 23:27 Cloudy with Mist and Fog 43 6.1 41 5 93 93 Calm 29.89 1012 4 6 0.00 0.00
11:53 pm 23:53 Cloudy with Mist and Fog 43 6.1 41 5 93 93 WNW 3 6 29.86 1011 3 4 0.00 0.00

Powered by AerisWeather